Regional Weather Roundup
Issued by NWS Charleston, SC

Current Version | Previous Version | Graphics & Text | Print | Product List | Glossary On
Versions: 1 2 3 4 5 6 7 8 9 10 11 12 13 14 15 16 17 18 19 20 21 22 23 24 25 26 27 28 29 30 31 32 33 34 35 36 37 38 39 40 41 42 43 44 45 46 47 48 49 50
000
ASUS42 KCHS 201012
RWRCHS

Regional Weather Roundup
National Weather Service Charleston SC
500 AM EST TUE FEB 20 2018

NOTE: "fair" indicates few or no clouds below 12,000 feet with no
significant weather and/or obstructions to visibility.

Not all stations are quality controlled. Use data with caution,
especially dewpoint observations.

SCZ027-030-031-034>040-042>050-201100-
...Southeast South Carolina...

CITY           SKY/WX    TMP DP  RH WIND       PRES   REMARKS
N Charleston   FOG       60  59  96 CALM      30.39R VSB 1/4
Waterfront Prk   N/A     61  61 100 CALM      30.24R
Mount Pleasant FAIR      57  57 100 CALM      30.39S FOG
Johns Island   FOG       59  59 100 CALM      30.39R VSB<1/4
Pinopolis      NOT AVBL
Moncks Corner  FOG       59  59 100 CALM      30.39S VSB 1/4
Summerville    FOG       61  61 100 CALM      30.40R VSB 1/4
Beaufort MCAS  FOG       57  57 100 NE3       30.38R VSB 1/4
Beaufort Arpt  FOG       61  61 100 NE3       30.37S VSB 1/4
Hilton Head Is FAIR      61  61 100 CALM      30.38R
Walterboro     FOG       59  59 100 CALM      30.40R VSB 1/4
Allendale      FOG       63  64 100 CALM      30.38R VSB 3/4

...Southern Midlands and Pee Dee...

CITY           SKY/WX    TMP DP  RH WIND       PRES   REMARKS
Georgetown     FOG       55  55 100 CALM      30.41S VSB 1/2
Kingstree      FOG       61  59  94 E3        30.40S VSB 1/4
Orangeburg     FOG       60  59  96 CALM      30.39R VSB 1/4
Barnwell       FOG       64  64 100 CALM      30.39R VSB 1/4
Aiken          FOG       59  59 100 CALM      30.41S VSB 1/4
Manning        HAZE      61  50  67 MISG      30.40R VSB 1/4
Columbia       FOG       61  61 100 E3        30.39R VSB<1/4
Sumter         FOG       60  60 100 CALM      30.38R VSB 1/4
Florence       FOG       59  59 100 CALM      30.41R VSB 1/4
Myrtle Beach   FOG       59  59 100 SE3       30.42R VSB 1/4
N Myrtle Beach FOG       62  62 100 CALM      30.41R VSB 1/4

$$

GAZ063-065-086>088-099>101-113>116-118-119-134>141-150-201100-
...Southeast Georgia...

CITY           SKY/WX    TMP DP  RH WIND       PRES   REMARKS
Savannah Arpt  FOG       60  60 100 N3        30.37R VSB 1/2
Hunter AAF     FAIR      58  57  96 CALM      30.34R FOG
Fort Stewart   FAIR      58  57  98 CALM      30.34R
Statesboro     FOG       62  32  32 CALM      30.38R VSB 1/4
Sylvania       FOG       63  63 100 CALM      30.38R VSB 1/4
Claxton        FOG       60  60  99 CALM      30.36S VSB 1/4

...CSRA, Central and far Southeast Georgia...

CITY           SKY/WX    TMP DP  RH WIND       PRES   REMARKS
Thomson        CLOUDY    58  57  96 SE5       30.42S
Augusta-Bush   FOG       62  62 100 SE3       30.37R VSB 1/4
Augusta-Daniel FOG       64  63  96 SE8       30.38S VSB 1/2
Swainsboro     FAIR      63  63 100 SE5       30.37R FOG
Vidalia        FOG       63  61  94 CALM      30.36R VSB 1/2
Eastman        HAZE      64  57  80 E5        30.37S VSB 1/4
Hazlehurst     FAIR      65  65 100 SE3       30.34R FOG
Alma           FOG       63  62  97 CALM      30.34R VSB 3/4
Waycross       FOG       62  60  90 CALM      30.34R VSB 1/4
Jesup          PTSUNNY   61  57  88 CALM      30.35R
Baxley         MOCLDY    59  59 100 CALM      30.34S FOG
Brunswick      FOG       59  57  94 E3        30.35R VSB 1/4
Saint Simons   FAIR      64  63  96 E5        30.34R

$$

SCZ027-028-034-036>038-045-046-048>050-GAZ119-141-201100-
...Lake and Supplemental Coastal Observations...

STATION/POSITION TIME  TEMP    WIND        PRES    WAVE   SWELL
                       AIR SEA DIR/SP/G            HT/PER HT/PER/DIR
                 (UTC) (F)     (DEG/KT/KT) (MB)    (FT/S) (FT/S/D)
Winyah Bay       0845   58      70/  2     1029.0
Lake Murray      0920   60     100/  3/  4 1028.1S
ACE Basin NERRS  0845   61        CALM     1028.0
Fort Pulaski     0948   62 60   80/  2/  3 1028.4R
Sapelo Island    0900   67     130/  5     1027.0

$$

ANZ835-935-AMZ111-154-330-350-352-354-370-450-454-472-201100-
...C-MAN and Buoy Observations...

STATION/POSITION TIME  TEMP    WIND        PRES    WAVE   SWELL
                       AIR SEA DIR/SP/G            HT/PER HT/PER/DIR
                 (UTC) (F)     (DEG/KT/KT) (MB)    (FT/S) (FT/S/D)
Buoy 41004       0950   71 68  140/  8/ 10 1028.8R   4/ 7   3/ 90/ 7
Buoy 41008       0950   62 57   70/  6/  6 1027.4R   3/ 8   3/ 80/ 8
Folly Beach CMAN 0900   60      30/  4/  5 1029.2S
Capers Nearshore 0908   57 58   90/  4/  8 1028.6S
Fripp Nearshore  0908   58 59   90/  8     1027.2R


STATION/POSITION TIME  TEMP    WIND        PRES    WAVE   SWELL
                       AIR SEA DIR/SP/G            HT/PER HT/PER/DIR
                 (UTC) (F)     (DEG/KT/KT) (MB)    (FT/S) (FT/S/D)
5E St. Marys GA  1000      60                N/A     3/ 6
Frying Pan Buoy  0950   70 68  140/  6/  8 1029.8R   3/ 6   3/110/ 6
Buoy 41025       0950   72 72  170/ 16/ 19 1031.4R   4/ 9   2/100/ 9
Cape Lookout NC  0900          160/  4/  4 1030.7S
Buoy 41002       0950   72 74  110/ 12/ 14 1031.0R   4/ 6   3/110/ 6
Buoy 41010       NOT AVBL
St Augustine FL  1000   66 63  150/  5/  5 1026.9R


$$




USA.gov is the U.S. government's official web portal to all federal, state and local government web resources and services.